When you browse on this site, cookies collect data to enhance your experience and personalize the content and advertising you see.
Visit our Privacy Policy to learn more. By continuing to use the site, you agree to this use of cookies and data.
  • In Latvia
  • List of Countries
  • For 7 days
  • Water Temperature
  • Weather Map
  • Weather Widgets
  • user-avatar
    Login

    Hourly Weather Graz

    Today, 4 June, Thursday

    Time Temperature Precipitation Wind Pressure Humidity
    00:00 +13°C° 0 mm 1 mps 715 mmHg 87%
    01:00 +13°C° 0 mm 2 mps 715 mmHg 85%
    02:00 +13°C° 0 mm 1 mps 714 mmHg 86%
    03:00 +12°C° 0 mm 1 mps 714 mmHg 87%
    04:00 +12°C° 0 mm 1 mps 713 mmHg 88%
    05:00 +14°C° 0 mm 1 mps 713 mmHg 83%
    06:00 +15°C° 0 mm 1 mps 713 mmHg 79%
    07:00 +17°C° 0 mm 2 mps 713 mmHg 73%
    08:00 +19°C° 0 mm 2 mps 713 mmHg 67%
    09:00 +21°C° 0 mm 2 mps 713 mmHg 60%
    10:00 +22°C° 0 mm 3 mps 713 mmHg 53%
    11:00 +23°C° 0 mm 4 mps 713 mmHg 51%
    12:00 +23°C° 0 mm 4 mps 713 mmHg 50%
    13:00 +23°C° 0 mm 5 mps 713 mmHg 47%
    14:00 +23°C° 0 mm 5 mps 712 mmHg 49%
    15:00 +22°C° 0 mm 5 mps 712 mmHg 51%
    16:00 +22°C° 0 mm 5 mps 711 mmHg 53%
    17:00 +20°C° 0 mm 4 mps 711 mmHg 60%
    18:00 +19°C° 0 mm 3 mps 711 mmHg 66%
    19:00 +17°C° 0 mm 2 mps 710 mmHg 73%
    20:00 +17°C° 0 mm 2 mps 710 mmHg 77%
    21:00 +16°C° 0 mm 2 mps 710 mmHg 82%
    22:00 +15°C° 0 mm 2 mps 710 mmHg 86%
    23:00 +15°C° 0.2 mm 1 mps 710 mmHg 88%

    Tomorrow, 5 June, Friday

    Time Temperature Precipitation Wind Pressure Humidity
    00:00 +15°C° 0.2 mm 1 mps 710 mmHg 89%
    01:00 +14°C° 0.2 mm 0 mps 710 mmHg 91%
    02:00 +15°C° 1.1 mm 1 mps 710 mmHg 92%
    03:00 +14°C° 1.1 mm 1 mps 710 mmHg 93%
    04:00 +14°C° 1.1 mm 1 mps 709 mmHg 95%
    05:00 +14°C° 4.2 mm 1 mps 710 mmHg 95%
    06:00 +14°C° 4.2 mm 1 mps 710 mmHg 95%
    07:00 +14°C° 4.2 mm 1 mps 710 mmHg 96%
    08:00 +14°C° 1.4 mm 1 mps 711 mmHg 94%
    09:00 +14°C° 1.4 mm 1 mps 711 mmHg 93%
    10:00 +14°C° 1.4 mm 1 mps 711 mmHg 92%
    11:00 +14°C° 0.2 mm 1 mps 712 mmHg 90%
    12:00 +14°C° 0.2 mm 1 mps 712 mmHg 88%
    13:00 +15°C° 0.2 mm 1 mps 712 mmHg 86%
    14:00 +14°C° 0 mm 0 mps 713 mmHg 85%
    15:00 +14°C° 0 mm 0 mps 713 mmHg 83%
    16:00 +15°C° 0 mm 0 mps 713 mmHg 81%
    17:00 +14°C° 0 mm 0 mps 713 mmHg 84%
    18:00 +14°C° 0 mm 0 mps 713 mmHg 87%
    19:00 +13°C° 0 mm 0 mps 714 mmHg 90%
    20:00 +13°C° 0 mm 0 mps 714 mmHg 91%
    21:00 +12°C° 0 mm 0 mps 715 mmHg 92%
    22:00 +11°C° 0 mm 0 mps 716 mmHg 92%
    23:00 +11°C° 0 mm 0 mps 716 mmHg 93%

    Day after tomorrow, 6 June, Saturday

    Time Temperature Precipitation Wind Pressure Humidity
    00:00 +10°C° 0 mm 0 mps 716 mmHg 93%
    01:00 +11°C° 0 mm 1 mps 716 mmHg 93%
    02:00 +11°C° 0 mm 1 mps 717 mmHg 93%
    03:00 +11°C° 0 mm 1 mps 717 mmHg 93%
    04:00 +11°C° 0 mm 1 mps 717 mmHg 92%
    05:00 +12°C° 0 mm 1 mps 717 mmHg 88%
    06:00 +13°C° 0 mm 0 mps 718 mmHg 83%
    07:00 +15°C° 0 mm 0 mps 718 mmHg 79%
    08:00 +16°C° 0 mm 1 mps 718 mmHg 77%
    09:00 +18°C° 0 mm 1 mps 718 mmHg 75%
    10:00 +19°C° 0 mm 1 mps 718 mmHg 73%
    11:00 +20°C° 0 mm 1 mps 718 mmHg 71%
    12:00 +21°C° 0 mm 1 mps 718 mmHg 68%
    13:00 +22°C° 0 mm 1 mps 718 mmHg 66%
    14:00 +22°C° 0.3 mm 1 mps 717 mmHg 70%
    15:00 +22°C° 0.3 mm 1 mps 717 mmHg 73%
    16:00 +22°C° 0.3 mm 1 mps 716 mmHg 77%
    17:00 +21°C° 0.4 mm 1 mps 716 mmHg 81%
    18:00 +20°C° 0.4 mm 1 mps 716 mmHg 85%
    19:00 +20°C° 0.4 mm 1 mps 716 mmHg 89%
    20:00 +18°C° 0.1 mm 1 mps 717 mmHg 91%
    21:00 +16°C° 0.1 mm 1 mps 717 mmHg 92%
    22:00 +15°C° 0.1 mm 1 mps 717 mmHg 93%
    23:00 +15°C° 0 mm 1 mps 717 mmHg 94%

    7 June, Sunday

    Time Temperature Precipitation Wind Pressure Humidity
    00:00 +15°C° 0 mm 1 mps 717 mmHg 94%
    01:00 +14°C° 0 mm 1 mps 717 mmHg 94%
    02:00 +14°C° 0 mm 1 mps 717 mmHg 94%
    03:00 +14°C° 0 mm 1 mps 717 mmHg 94%
    04:00 +14°C° 0 mm 1 mps 717 mmHg 94%
    05:00 +15°C° 0 mm 1 mps 717 mmHg 92%
    06:00 +15°C° 0 mm 0 mps 717 mmHg 90%
    07:00 +17°C° 0 mm 0 mps 718 mmHg 87%
    08:00 +20°C° 0.1 mm 1 mps 718 mmHg 83%
    09:00 +21°C° 0.1 mm 1 mps 718 mmHg 78%
    10:00 +21°C° 0.1 mm 2 mps 718 mmHg 73%
    11:00 +23°C° 0.4 mm 1 mps 719 mmHg 71%
    12:00 +23°C° 0.4 mm 1 mps 719 mmHg 69%
    13:00 +24°C° 0.4 mm 1 mps 719 mmHg 67%
    14:00 +24°C° 1.5 mm 1 mps 719 mmHg 72%
    15:00 +23°C° 1.5 mm 1 mps 718 mmHg 76%
    16:00 +23°C° 1.5 mm 1 mps 718 mmHg 81%
    17:00 +21°C° 1.3 mm 1 mps 718 mmHg 84%
    18:00 +20°C° 1.3 mm 1 mps 719 mmHg 87%
    19:00 +19°C° 1.3 mm 1 mps 719 mmHg 90%
    20:00 +18°C° 1 mm 1 mps 719 mmHg 92%
    21:00 +18°C° 1 mm 1 mps 719 mmHg 94%
    22:00 +16°C° 1 mm 1 mps 720 mmHg 95%
    23:00 +15°C° 0.6 mm 1 mps 719 mmHg 95%

    8 June, Monday

    Time Temperature Precipitation Wind Pressure Humidity
    00:00 +15°C° 0.6 mm 1 mps 719 mmHg 95%
    01:00 +15°C° 0.6 mm 1 mps 719 mmHg 95%
    02:00 +14°C° 0.2 mm 0 mps 719 mmHg 95%
    03:00 +13°C° 0.2 mm 0 mps 719 mmHg 95%
    04:00 +13°C° 0.2 mm 0 mps 719 mmHg 95%
    05:00 +13°C° 0.8 mm 0 mps 719 mmHg 95%
    06:00 +14°C° 0.8 mm 1 mps 719 mmHg 96%
    07:00 +14°C° 0.8 mm 1 mps 719 mmHg 96%
    08:00 +14°C° 0.3 mm 1 mps 719 mmHg 96%
    09:00 +15°C° 0.3 mm 1 mps 719 mmHg 96%
    10:00 +15°C° 0.3 mm 1 mps 720 mmHg 96%
    11:00 +15°C° 0.2 mm 1 mps 720 mmHg 94%
    12:00 +16°C° 0.2 mm 1 mps 720 mmHg 92%
    13:00 +18°C° 0.2 mm 1 mps 719 mmHg 91%
    14:00 +18°C° 0.3 mm 1 mps 719 mmHg 90%
    15:00 +18°C° 0.3 mm 1 mps 719 mmHg 90%
    16:00 +18°C° 0.3 mm 1 mps 719 mmHg 90%
    17:00 +18°C° 0.7 mm 1 mps 719 mmHg 92%
    18:00 +16°C° 0.7 mm 1 mps 719 mmHg 94%
    19:00 +16°C° 0.7 mm 1 mps 719 mmHg 96%
    20:00 +16°C° 1.4 mm 1 mps 719 mmHg 96%
    21:00 +16°C° 1.4 mm 1 mps 719 mmHg 96%
    22:00 +15°C° 1.4 mm 1 mps 720 mmHg 96%
    23:00 +15°C° 1.1 mm 1 mps 720 mmHg 96%

    9 June, Tuesday

    Time Temperature Precipitation Wind Pressure Humidity
    00:00 +15°C° 1.1 mm 1 mps 720 mmHg 96%
    01:00 +14°C° 1.1 mm 0 mps 720 mmHg 97%
    02:00 +14°C° 0.4 mm 0 mps 719 mmHg 97%
    03:00 +13°C° 0.4 mm 0 mps 719 mmHg 97%
    04:00 +13°C° 0.4 mm 0 mps 719 mmHg 97%
    05:00 +13°C° 0.6 mm 0 mps 720 mmHg 97%
    06:00 +13°C° 0.6 mm 0 mps 720 mmHg 96%
    07:00 +13°C° 0.6 mm 0 mps 720 mmHg 96%
    08:00 +13°C° 1.7 mm 0 mps 720 mmHg 96%
    09:00 +13°C° 1.7 mm 0 mps 721 mmHg 96%
    10:00 +13°C° 1.7 mm 0 mps 721 mmHg 96%
    11:00 +15°C° 1.7 mm 1 mps 721 mmHg 96%
    12:00 +15°C° 1.7 mm 1 mps 721 mmHg 95%
    13:00 +15°C° 1.7 mm 1 mps 721 mmHg 94%
    14:00 +16°C° 0.1 mm 1 mps 721 mmHg 91%
    15:00 +16°C° 0.1 mm 1 mps 721 mmHg 88%
    16:00 +18°C° 0.1 mm 1 mps 722 mmHg 85%
    17:00 +15°C° 0 mm 0 mps 722 mmHg 86%
    18:00 +15°C° 0 mm 0 mps 722 mmHg 86%
    19:00 +15°C° 0 mm 0 mps 722 mmHg 87%
    20:00 +14°C° 0 mm 0 mps 722 mmHg 89%
    21:00 +14°C° 0 mm 1 mps 722 mmHg 90%
    22:00 +13°C° 0 mm 1 mps 723 mmHg 92%
    23:00 +12°C° 0 mm 1 mps 723 mmHg 92%
    Show more